Regional Weather Roundup
Issued by NWS

Home | Current Version | Previous Version | Graphics & Text | Print | Product List | Glossary On
Versions: 1 2 3 4 5 6 7 8 9 10 11 12 13 14 15 16 17 18 19 20 21 22 23 24 25 26 27 28 29 30 31 32 33 34 35 36 37 38 39 40 41 42 43 44 45 46 47 48 49 50
000
ASUS43 KFSD 180602
RWRSD

WEATHER ROUNDUP FOR SOUTH DAKOTA
NATIONAL WEATHER SERVICE SIOUX FALLS SD
100 AM CDT FRI APR 18 2014

NOTE: "FAIR" INDICATES FEW OR NO CLOUDS BELOW 12,000 FEET WITH NO
SIGNIFICANT WEATHER AND/OR OBSTRUCTIONS TO VISIBILITY.


SDZ001>005-009-010-012>017-180700-
NORTHWEST AND NORTH CENTRAL SOUTH DAKOTA

CITY           SKY/WX    TMP DP  RH WIND       PRES   REMARKS
FAITH            N/A     35  25  66 SE21      29.99F WCI  24
MOBRIDGE       PTCLDY    35  22  58 SE17      30.09F WCI  25
$$

SDZ012>016-024>037-041>051-057-063-072>074-180700-
SOUTHWEST AND SOUTH CENTRAL SOUTH DAKOTA

CITY           SKY/WX    TMP DP  RH WIND       PRES   REMARKS
RAPID CTY ARPT CLOUDY    38  33  82 SE9       29.94F
PIERRE         CLOUDY    38  26  62 SE16      30.08F
CUSTER         MOCLDY    40  33  76 CALM      29.95F
ELLSWORTH AFB  CLOUDY    41  35  79 S12       29.93F
PHILIP         MOCLDY    35  26  69 E12       30.00F WCI  27
PINE RIDGE     CLEAR     47  37  68 S17G31    29.92F
WINNER         FAIR      44  26  49 S16G24    30.08F
$$

SDZ004>011-016>023-039-040-180700-
NORTHEAST SOUTH DAKOTA

CITY           SKY/WX    TMP DP  RH WIND       PRES   REMARKS
ABERDEEN       CLOUDY    35  22  58 SE10      30.21S WCI  27
WATERTOWN      CLOUDY    32  18  56 E8        30.23F WCI  25
$$

SDZ017-020-022-023-036>040-048>070-180700-
SOUTHEAST SOUTH DAKOTA

CITY           SKY/WX    TMP DP  RH WIND       PRES   REMARKS
SIOUX FALLS    CLOUDY    35  26  69 E9        30.25S WCI  28
HURON          PTCLDY    36  25  64 SE13      30.20S
CHAMBERLAIN      N/A     36  26  67 SE18      30.13F
MITCHELL       MOCLDY    37  26  64 SE12      30.21S
YANKTON        FAIR      37  27  65 E8        30.24S
$$

ABBREVIATIONS USED IN REMARKS
   TC - TEMPERATURE IN CELSIUS
  WCI - WIND CHILL INDEX
   HX - HEAT INDEX
  VSB - VISIBILITY




USA.gov is the U.S. government's official web portal to all federal, state and local government web resources and services.